When you browse on this site, cookies collect data to enhance your experience and personalize the content and advertising you see.
Visit our Privacy Policy to learn more. By continuing to use the site, you agree to this use of cookies and data.
  • In Lithuania
  • List of Countries
  • For 7 days
  • Water Temperature
  • Satellite Maps
  • Weather Map
  • Weather Widgets
  • user-avatar
    Login

    Hourly Weather Fier

    Today, 25 May, Saturday

    Time Temperature Precipitation Wind Pressure Humidity
    00:00 +16°C° 0 mm 1 mps 759 mmHg 84%
    01:00 +16°C° 0 mm 2 mps 759 mmHg 88%
    02:00 +16°C° 0 mm 2 mps 759 mmHg 87%
    03:00 +15°C° 0 mm 2 mps 759 mmHg 86%
    04:00 +15°C° 0 mm 2 mps 759 mmHg 85%
    05:00 +17°C° 0 mm 2 mps 759 mmHg 78%
    06:00 +18°C° 0 mm 2 mps 760 mmHg 71%
    07:00 +20°C° 0 mm 2 mps 760 mmHg 64%
    08:00 +21°C° 0 mm 2 mps 760 mmHg 59%
    09:00 +23°C° 0 mm 2 mps 760 mmHg 54%
    10:00 +25°C° 0 mm 2 mps 760 mmHg 49%
    11:00 +25°C° 0 mm 2 mps 760 mmHg 49%
    12:00 +26°C° 0 mm 3 mps 760 mmHg 48%
    13:00 +26°C° 0 mm 3 mps 760 mmHg 48%
    14:00 +26°C° 0 mm 3 mps 760 mmHg 51%
    15:00 +25°C° 0 mm 3 mps 760 mmHg 54%
    16:00 +25°C° 0 mm 3 mps 760 mmHg 57%
    17:00 +23°C° 0 mm 2 mps 760 mmHg 63%
    18:00 +21°C° 0 mm 2 mps 760 mmHg 70%
    19:00 +20°C° 0 mm 1 mps 760 mmHg 77%
    20:00 +20°C° 0 mm 1 mps 760 mmHg 77%
    21:00 +19°C° 0 mm 1 mps 760 mmHg 78%
    22:00 +19°C° 0 mm 1 mps 761 mmHg 79%
    23:00 +19°C° 0 mm 1 mps 761 mmHg 78%

    Tomorrow, 26 May, Sunday

    Time Temperature Precipitation Wind Pressure Humidity
    00:00 +19°C° 0 mm 1 mps 761 mmHg 77%
    01:00 +19°C° 0 mm 1 mps 761 mmHg 76%
    02:00 +19°C° 0 mm 1 mps 761 mmHg 77%
    03:00 +18°C° 0 mm 1 mps 760 mmHg 77%
    04:00 +18°C° 0 mm 1 mps 760 mmHg 78%
    05:00 +19°C° 0 mm 1 mps 760 mmHg 71%
    06:00 +21°C° 0 mm 1 mps 760 mmHg 65%
    07:00 +20°C° 0 mm 0 mps 760 mmHg 59%
    08:00 +24°C° 0 mm 1 mps 760 mmHg 53%
    09:00 +25°C° 0 mm 1 mps 760 mmHg 48%
    10:00 +27°C° 0 mm 1 mps 760 mmHg 42%
    11:00 +27°C° 0 mm 2 mps 760 mmHg 44%
    12:00 +28°C° 0 mm 3 mps 759 mmHg 45%
    13:00 +28°C° 0 mm 4 mps 759 mmHg 47%
    14:00 +27°C° 0 mm 3 mps 759 mmHg 50%
    15:00 +27°C° 0 mm 3 mps 759 mmHg 53%
    16:00 +26°C° 0 mm 2 mps 759 mmHg 56%
    17:00 +25°C° 0 mm 2 mps 759 mmHg 60%
    18:00 +24°C° 0 mm 2 mps 759 mmHg 63%
    19:00 +21°C° 0 mm 2 mps 759 mmHg 67%
    20:00 +21°C° 0 mm 2 mps 759 mmHg 67%
    21:00 +22°C° 0 mm 1 mps 759 mmHg 67%
    22:00 +22°C° 0 mm 1 mps 759 mmHg 67%
    23:00 +22°C° 0 mm 1 mps 759 mmHg 68%

    Day after tomorrow, 27 May, Monday

    Time Temperature Precipitation Wind Pressure Humidity
    00:00 +22°C° 0 mm 1 mps 759 mmHg 68%
    01:00 +21°C° 0 mm 1 mps 759 mmHg 69%
    02:00 +21°C° 0 mm 1 mps 758 mmHg 70%
    03:00 +21°C° 0 mm 1 mps 758 mmHg 70%
    04:00 +21°C° 0 mm 1 mps 758 mmHg 71%
    05:00 +21°C° 0 mm 2 mps 758 mmHg 70%
    06:00 +23°C° 0 mm 2 mps 758 mmHg 69%
    07:00 +23°C° 0 mm 2 mps 758 mmHg 68%
    08:00 +23°C° 0.4 mm 2 mps 758 mmHg 71%
    09:00 +21°C° 0.4 mm 3 mps 758 mmHg 74%
    10:00 +21°C° 0.4 mm 3 mps 758 mmHg 77%
    11:00 +24°C° 0.1 mm 3 mps 757 mmHg 69%
    12:00 +27°C° 0.1 mm 2 mps 757 mmHg 61%
    13:00 +29°C° 0.1 mm 2 mps 757 mmHg 53%
    14:00 +29°C° 0 mm 3 mps 756 mmHg 54%
    15:00 +29°C° 0 mm 3 mps 756 mmHg 55%
    16:00 +28°C° 0 mm 4 mps 755 mmHg 56%
    17:00 +26°C° 0.1 mm 3 mps 755 mmHg 64%
    18:00 +25°C° 0.1 mm 3 mps 756 mmHg 71%
    19:00 +23°C° 0.1 mm 2 mps 756 mmHg 78%
    20:00 +21°C° 0 mm 3 mps 756 mmHg 76%
    21:00 +21°C° 0 mm 3 mps 756 mmHg 75%
    22:00 +20°C° 0 mm 4 mps 756 mmHg 74%
    23:00 +20°C° 0 mm 4 mps 756 mmHg 74%

    28 May, Tuesday

    Time Temperature Precipitation Wind Pressure Humidity
    00:00 +19°C° 0 mm 4 mps 756 mmHg 74%
    01:00 +19°C° 0 mm 4 mps 756 mmHg 73%
    02:00 +19°C° 0 mm 4 mps 756 mmHg 75%
    03:00 +19°C° 0 mm 4 mps 756 mmHg 77%
    04:00 +18°C° 0 mm 4 mps 756 mmHg 78%
    05:00 +20°C° 0 mm 5 mps 756 mmHg 74%
    06:00 +21°C° 0 mm 5 mps 756 mmHg 70%
    07:00 +23°C° 0 mm 6 mps 756 mmHg 66%
    08:00 +23°C° 0 mm 6 mps 756 mmHg 62%
    09:00 +24°C° 0 mm 7 mps 756 mmHg 58%
    10:00 +26°C° 0 mm 8 mps 756 mmHg 54%
    11:00 +26°C° 0 mm 8 mps 756 mmHg 54%
    12:00 +27°C° 0 mm 9 mps 756 mmHg 53%
    13:00 +27°C° 0 mm 9 mps 756 mmHg 53%
    14:00 +26°C° 0 mm 9 mps 756 mmHg 56%
    15:00 +26°C° 0 mm 9 mps 756 mmHg 59%
    16:00 +24°C° 0 mm 9 mps 756 mmHg 61%
    17:00 +23°C° 0 mm 8 mps 756 mmHg 67%
    18:00 +21°C° 0 mm 7 mps 756 mmHg 73%
    19:00 +20°C° 0 mm 6 mps 757 mmHg 78%
    20:00 +20°C° 0 mm 6 mps 757 mmHg 79%
    21:00 +19°C° 0 mm 5 mps 757 mmHg 81%
    22:00 +19°C° 0 mm 5 mps 758 mmHg 82%
    23:00 +17°C° 0 mm 5 mps 758 mmHg 82%

    29 May, Wednesday

    Time Temperature Precipitation Wind Pressure Humidity
    00:00 +17°C° 0 mm 5 mps 758 mmHg 83%
    01:00 +17°C° 0 mm 5 mps 758 mmHg 83%
    02:00 +18°C° 0 mm 4 mps 758 mmHg 83%
    03:00 +18°C° 0 mm 4 mps 758 mmHg 83%
    04:00 +18°C° 0 mm 4 mps 758 mmHg 83%
    05:00 +19°C° 0 mm 5 mps 758 mmHg 78%
    06:00 +21°C° 0 mm 5 mps 758 mmHg 73%
    07:00 +22°C° 0 mm 5 mps 759 mmHg 69%
    08:00 +23°C° 0.3 mm 6 mps 759 mmHg 66%
    09:00 +24°C° 0.3 mm 6 mps 759 mmHg 63%
    10:00 +26°C° 0.3 mm 7 mps 759 mmHg 60%
    11:00 +26°C° 0.1 mm 7 mps 759 mmHg 59%
    12:00 +27°C° 0.1 mm 7 mps 760 mmHg 58%
    13:00 +27°C° 0.1 mm 7 mps 760 mmHg 57%
    14:00 +27°C° 0 mm 7 mps 760 mmHg 58%
    15:00 +26°C° 0 mm 6 mps 760 mmHg 58%
    16:00 +26°C° 0 mm 6 mps 760 mmHg 58%
    17:00 +25°C° 0 mm 5 mps 760 mmHg 63%
    18:00 +22°C° 0 mm 4 mps 760 mmHg 69%
    19:00 +21°C° 0 mm 3 mps 760 mmHg 74%
    20:00 +20°C° 0 mm 3 mps 761 mmHg 76%
    21:00 +20°C° 0 mm 3 mps 761 mmHg 77%
    22:00 +19°C° 0 mm 3 mps 762 mmHg 79%
    23:00 +19°C° 0 mm 3 mps 762 mmHg 79%

    30 May, Thursday

    Time Temperature Precipitation Wind Pressure Humidity
    00:00 +19°C° 0 mm 3 mps 762 mmHg 79%
    01:00 +18°C° 0 mm 2 mps 762 mmHg 79%
    02:00 +18°C° 0 mm 2 mps 762 mmHg 79%
    03:00 +18°C° 0 mm 2 mps 762 mmHg 78%
    04:00 +19°C° 0 mm 1 mps 762 mmHg 77%
    05:00 +20°C° 0 mm 1 mps 762 mmHg 72%
    06:00 +22°C° 0 mm 1 mps 762 mmHg 66%
    07:00 +23°C° 0 mm 1 mps 762 mmHg 61%
    08:00 +24°C° 0 mm 1 mps 762 mmHg 57%
    09:00 +25°C° 0 mm 2 mps 762 mmHg 54%
    10:00 +27°C° 0 mm 2 mps 762 mmHg 50%
    11:00 +27°C° 0 mm 2 mps 762 mmHg 50%
    12:00 +28°C° 0 mm 3 mps 762 mmHg 51%
    13:00 +28°C° 0 mm 3 mps 762 mmHg 51%
    14:00 +27°C° 0 mm 3 mps 762 mmHg 53%
    15:00 +27°C° 0 mm 3 mps 762 mmHg 55%
    16:00 +26°C° 0 mm 3 mps 761 mmHg 58%
    17:00 +25°C° 0 mm 3 mps 761 mmHg 63%
    18:00 +23°C° 0 mm 2 mps 761 mmHg 69%
    19:00 +21°C° 0 mm 2 mps 761 mmHg 74%
    20:00 +21°C° 0 mm 1 mps 762 mmHg 77%
    21:00 +21°C° 0 mm 1 mps 762 mmHg 79%
    22:00 +20°C° 0 mm 1 mps 762 mmHg 81%
    23:00 +20°C° 0 mm 1 mps 762 mmHg 82%
    Show more